Tyler, TX

2:49 AM CDT on March 26, 2017 (GMT -0500)
Tyler Pounds

Weather History for KTYR - June, 2014

Change the Weather History Date:

Monday, June 9, 2014

  Actual Average Record
Temperature  
Mean Temperature 72 °F 78 °F  
Max Temperature 78 °F 87 °F 102 °F (1911)
Min Temperature 66 °F 70 °F 54 °F (1976)
Degree Days  
Heating Degree Days 0 0  
Month to date heating degree days 0 0  
Since 1 June heating degree days 0 0  
Since 1 July heating degree days 2539 2269  
Cooling Degree Days 7 13  
Month to date cooling degree days 140 113  
Year to date cooling degree days 533 482  
Since 1 June cooling degree days 140 113  
Growing Degree Days 22 (Base 50)    
Moisture  
Dew Point 67 °F    
Average Humidity 85    
Maximum Humidity 100    
Minimum Humidity 69    
Precipitation  
Precipitation 1.37 in 0.15 in 3.96 in (1974)
Month to date precipitation 1.54 1.38  
Year to date precipitation 14.15 20.31  
Snow  
Snow 0.00 in - - ()
Month to date snowfall 0.0  
Since 1 June snowfall 0.0  
Since 1 July snowfall 1.2  
Snow Depth 0.00 in    
Sea Level Pressure  
Sea Level Pressure 29.79 in    
Wind  
Wind Speed 9 mph (SW)    
Max Wind Speed 22 mph    
Max Gust Speed 28 mph    
Visibility 8 miles    
Events Rain , Thunderstorm    
T = Trace of Precipitation, MM = Missing Value Source: NWS Daily Summary

Daily Weather History Graph

Daily Weather History Graph

Search for Another Location

Airport or City:

Trip Planner

Search our weather history database for the weather conditions in past years. The results will help you decide how hot, cold, wet, or windy it might be!

Date:

Astronomy

Jun. 09, 2014 Rise Set
Actual Time 6:14 AM CDT 8:27 PM CDT
Civil Twilight 5:45 AM CDT 8:56 PM CDT
Nautical Twilight 5:11 AM CDT 9:30 PM CDT
Astronomical Twilight 4:34 AM CDT 10:08 PM CDT
Moon 5:00 PM CDT (6/9) 3:29 AM CDT (6/9)
Length of Visible Light 15h 10m
Length of Day
14h 13m
Waxing Gibbous, 85% of the Moon is Illuminated
Jun 9
Waxing Gibbous
Jun 12
Full
Jun 19
Last Quarter
Jun 27
New
Jul 5
First Quarter

Hourly Weather History & Observations

Time (CDT) Temp. Dew Point Humidity Pressure Visibility Wind Dir Wind Speed Gust Speed Precip Events Conditions
12:53 AM 78.1 °F 72.0 °F 81% 29.82 in 10.0 mi SSE 8.1 mph - N/A   Clear
1:53 AM 77.0 °F 72.0 °F 84% 29.78 in 10.0 mi SSE 9.2 mph - N/A   Clear
2:53 AM 77.0 °F 72.0 °F 84% 29.78 in 10.0 mi South 8.1 mph - N/A   Clear
3:39 AM 77.0 °F 71.6 °F 83% 29.80 in 10.0 mi South 6.9 mph - N/A   Mostly Cloudy
3:53 AM 78.1 °F 71.1 °F 79% 29.78 in 10.0 mi SSW 12.7 mph 18.4 mph N/A   Overcast
4:53 AM 77.0 °F 71.1 °F 82% 29.77 in 10.0 mi South 12.7 mph - N/A   Scattered Clouds
5:53 AM 77.0 °F 71.1 °F 82% 29.77 in 10.0 mi South 12.7 mph - N/A   Overcast
6:18 AM 75.2 °F 71.6 °F 89% 29.79 in 10.0 mi South 9.2 mph - 0.00 in   Overcast
6:53 AM 75.9 °F 71.1 °F 85% 29.76 in 10.0 mi South 10.4 mph - 0.00 in   Overcast
7:28 AM 78.8 °F 71.6 °F 78% 29.77 in 10.0 mi South 16.1 mph - N/A   Mostly Cloudy
7:53 AM 78.1 °F 71.1 °F 79% 29.74 in 9.0 mi SSW 18.4 mph 27.6 mph N/A   Overcast
8:02 AM 78.8 °F 71.6 °F 78% 29.77 in 10.0 mi SSW 17.3 mph 26.5 mph N/A Thunderstorm Overcast
8:37 AM 69.8 °F 64.4 °F 83% 29.81 in 10.0 mi North 17.3 mph 23.0 mph 0.00 in Rain Light Rain
8:44 AM 68.0 °F 64.4 °F 88% 29.84 in 3.0 mi NNW 9.2 mph 23.0 mph 0.10 in Rain , Thunderstorm Heavy Rain
8:47 AM 66.2 °F 64.4 °F 94% 29.85 in 1.8 mi North 12.7 mph 19.6 mph 0.17 in Rain , Thunderstorm Heavy Thunderstorms and Rain
8:53 AM 66.0 °F 63.0 °F 90% 29.83 in 1.5 mi North 13.8 mph 18.4 mph 0.29 in Rain , Thunderstorm Heavy Thunderstorms and Rain
8:59 AM 66.2 °F 62.6 °F 88% 29.83 in 2.0 mi NNW 16.1 mph 26.5 mph 0.12 in Rain , Thunderstorm Heavy Thunderstorms and Rain
9:04 AM 66.2 °F 62.6 °F 88% 29.82 in 3.0 mi North 16.1 mph 26.5 mph 0.21 in Rain , Thunderstorm Heavy Thunderstorms and Rain
9:12 AM 66.2 °F 62.6 °F 88% 29.84 in 5.0 mi NNW 12.7 mph 20.7 mph 0.25 in Rain , Thunderstorm Heavy Thunderstorms and Rain
9:50 AM 66.2 °F 64.4 °F 94% 29.87 in 4.0 mi WNW 9.2 mph - 0.37 in Rain Rain
10:09 AM 66.2 °F 64.4 °F 94% 29.89 in 5.0 mi West 6.9 mph - 0.04 in Rain Rain
10:53 AM 66.0 °F 64.9 °F 96% 29.86 in 3.0 mi SSW 5.8 mph - 0.17 in Rain Heavy Rain
11:53 AM 66.0 °F 64.9 °F 96% 29.81 in 8.0 mi SSE 11.5 mph - 0.14 in Rain Rain
12:53 PM 66.9 °F 66.9 °F 100% 29.75 in 10.0 mi SSE 13.8 mph - 0.05 in Rain Light Rain
1:08 PM 66.2 °F 66.2 °F 100% 29.78 in 9.0 mi South 9.2 mph - 0.00 in   Partly Cloudy
2:25 PM 71.6 °F 69.8 °F 94% 29.80 in 10.0 mi SW 8.1 mph - N/A   Mostly Cloudy
3:53 PM 77.0 °F 66.9 °F 71% 29.78 in 10.0 mi WSW 10.4 mph 21.9 mph N/A   Mostly Cloudy
4:00 PM 77.0 °F 66.2 °F 69% 29.79 in 10.0 mi WSW 12.7 mph - N/A   Mostly Cloudy
4:53 PM 77.0 °F 66.0 °F 69% 29.78 in 10.0 mi West 8.1 mph - N/A   Overcast
5:48 PM 75.2 °F 66.2 °F 73% 29.79 in 10.0 mi West 4.6 mph - N/A   Overcast
5:53 PM 75.9 °F 66.9 °F 74% 29.77 in 10.0 mi WNW 4.6 mph - 0.00 in Rain Light Rain
6:53 PM 75.0 °F 66.9 °F 76% 29.76 in 10.0 mi Calm Calm - 0.00 in   Overcast
7:43 PM 73.4 °F 66.2 °F 78% 29.80 in 7.0 mi WNW 6.9 mph - 0.01 in Rain , Thunderstorm Light Thunderstorms and Rain
7:50 PM 71.6 °F 66.2 °F 83% 29.80 in 1.8 mi NW 5.8 mph - 0.03 in Rain , Thunderstorm Heavy Thunderstorms and Rain
7:53 PM 72.0 °F 66.9 °F 84% 29.79 in 1.2 mi NW 8.1 mph - 0.03 in Rain , Thunderstorm Heavy Thunderstorms and Rain
8:15 PM 69.8 °F 64.4 °F 83% 29.77 in 4.0 mi Calm Calm - 0.06 in Rain , Thunderstorm Light Rain
8:53 PM 69.1 °F 66.0 °F 90% 29.75 in 10.0 mi South 4.6 mph - 0.15 in Thunderstorm Overcast
9:01 PM 69.8 °F 66.2 °F 88% 29.78 in 10.0 mi SSW 9.2 mph - 0.02 in Thunderstorm Overcast
9:38 PM 69.8 °F 66.2 °F 88% 29.77 in 10.0 mi SW 5.8 mph - 0.09 in   Overcast
9:53 PM 69.1 °F 66.9 °F 93% 29.77 in 10.0 mi SW 5.8 mph - 0.11 in   Mostly Cloudy
10:53 PM 69.1 °F 64.9 °F 87% 29.77 in 10.0 mi SW 6.9 mph - 0.04 in   Partly Cloudy
11:53 PM 68.0 °F 64.9 °F 90% 29.78 in 10.0 mi SSW 5.8 mph - N/A   Clear